User: anonymous
Location: Caltech
(34.1382°N, 118.1253°W)
Time: 00:02:15
(UTC-07:00)
Language:

AO-27 - Orbit

View from above orbital plane
View from above orbital plane
View from above satellite
View from above satellite

Ground track
Ground track

The orbit data is extracted from the following two-line orbital elements,

1 22825U 93061C   14245.39299081  .00000051  00000-0  37006-4 0  7494
2 22825 098.6681 191.0839 0009483 075.3578 039.6874 14.29740343 91812
Epoch (UTC): 02 September 2014 09:25:54
Eccentricity: 0.0009483
inclination: 98.6681°
perigee height: 786 km
apogee height: 799 km
right ascension of ascending node: 191.0839°
argument of perigee: 75.3578°
revolutions per day: 14.29740343
mean anomaly at epoch: 39.6874°
orbit number at epoch: 9181

The dashed part of the orbit path shows where the satellite is in the earth's shadow,  

DLR